Date String (YYYY-MM-DD hh:mm:ss) UTC,Instrument flags,Ambient pressure (hPa),Sample flow (lpm),Bypass flow (lpm),Sample temperature (°C),Ambient temperature (°C),ASC tube jacket temperature (°C),LED temperature (°C),Box temperature (°C),Sample RH (%),Span deviation,Mass concentration (μg/m³),Mass concentration (μg/m³),Mass concentration (μg/m³)
DateTimeUTC,F1_M11,P_M11,Q1_M11,Q2_M11,T1_M11,T2_M11,T3_M11,T4_M11,T5_M11,U1_M11,ZSPAN_M11,X0_M11,X2_M11,X1_M11
2022-11-30 15:00:00,,0827.2,4.99,0.00,22.3,21.7,00.0,31.2,24.1,09.4,0000.0,0009.27,0005.40,0005.00
2022-11-30 15:01:00,,0827.2,4.99,0.00,22.4,22.8,00.0,31.1,24.4,09.4,0000.0,0009.25,0005.36,0004.97
2022-11-30 15:02:00,,0827.2,5.00,0.00,22.5,22.8,00.0,31.2,24.5,09.3,0000.0,0009.37,0005.35,0004.95
2022-11-30 15:03:00,,0827.1,5.00,0.00,22.5,22.4,00.0,31.3,24.4,09.3,0000.0,0009.76,0005.36,0004.94
2022-11-30 15:04:00,,0827.2,4.99,0.00,22.5,22.0,00.0,31.3,24.4,09.2,0000.0,0010.30,0005.39,0004.96
2022-11-30 15:05:00,,0827.3,5.00,0.00,22.5,21.7,00.0,31.3,24.3,09.2,0000.0,0010.27,0005.38,0004.95
2022-11-30 15:06:00,,0827.4,5.01,0.00,22.5,21.5,00.0,31.3,24.2,09.2,0000.0,0010.15,0005.29,0004.88
2022-11-30 15:07:00,,0827.2,5.02,0.00,22.5,21.3,00.0,31.3,24.2,09.1,0000.0,0010.13,0005.27,0004.85
2022-11-30 15:08:00,,0827.2,4.98,0.00,22.4,21.1,00.0,31.3,24.2,09.1,0000.0,0010.41,0005.24,0004.84
2022-11-30 15:09:00,,0827.2,5.00,0.00,22.4,21.1,00.0,31.3,24.2,09.1,0000.0,0010.34,0005.21,0004.84
2022-11-30 15:10:00,,0827.2,5.01,0.00,22.4,21.1,00.0,31.3,24.2,09.1,0000.0,0010.37,0005.20,0004.83
2022-11-30 15:11:00,,0827.3,5.00,0.00,22.4,21.1,00.0,31.3,24.1,09.0,0000.0,0010.18,0005.20,0004.80
2022-11-30 15:12:00,,0827.5,5.00,0.00,22.4,21.0,00.0,31.3,24.1,09.0,0000.0,0010.11,0005.15,0004.77
2022-11-30 15:13:00,,0827.4,4.99,0.00,22.4,20.8,00.0,31.3,24.1,08.9,0000.0,0009.80,0005.09,0004.73
2022-11-30 15:14:00,,0827.5,4.99,0.00,22.3,20.6,00.0,31.3,24.0,08.9,0000.0,0009.12,0005.04,0004.71
2022-11-30 15:15:00,,0827.5,5.00,0.00,22.3,20.6,00.0,31.3,24.0,08.8,0000.0,0008.53,0004.99,0004.68
2022-11-30 15:16:00,,0827.3,5.03,0.00,22.3,21.5,00.0,31.2,24.1,08.8,0000.0,0008.51,0004.95,0004.64
2022-11-30 15:17:00,,0827.2,4.98,0.00,22.4,22.7,00.0,31.2,24.4,08.6,0000.0,0008.76,0005.03,0004.66
2022-11-30 15:18:00,,0827.5,5.00,0.00,22.5,22.8,00.0,31.2,24.5,08.5,0000.0,0008.75,0005.02,0004.67
2022-11-30 15:19:00,,0827.4,5.00,0.00,22.6,22.4,00.0,31.3,24.5,08.5,0000.0,0008.81,0005.01,0004.66
2022-11-30 15:20:00,,0827.2,5.00,0.00,22.6,22.1,00.0,31.3,24.4,08.5,0000.0,0009.44,0005.03,0004.64
2022-11-30 15:21:00,,0827.2,5.00,0.00,22.5,21.8,00.0,31.3,24.3,08.5,0000.0,0009.43,0005.06,0004.66
2022-11-30 15:22:00,,0827.3,5.00,0.00,22.5,21.6,00.0,31.4,24.3,08.4,0000.0,0010.19,0005.16,0004.75
2022-11-30 15:23:00,,0827.4,5.00,0.00,22.5,21.4,00.0,31.4,24.3,08.4,0000.0,0010.50,0005.27,0004.82
2022-11-30 15:24:00,,0827.4,5.00,0.00,22.5,21.2,00.0,31.4,24.3,08.3,0000.0,0010.82,0005.40,0004.91
2022-11-30 15:25:00,,0827.3,5.00,0.00,22.5,21.1,00.0,31.4,24.2,08.3,0000.0,0011.40,0005.52,0005.00
2022-11-30 15:26:00,,0827.3,5.01,0.00,22.5,21.1,00.0,31.4,24.2,08.3,0000.0,0012.22,0005.65,0005.10
2022-11-30 15:27:00,,0827.4,5.00,0.00,22.4,20.9,00.0,31.4,24.1,08.3,0000.0,0012.42,0005.82,0005.27
2022-11-30 15:28:00,,0827.2,5.00,0.00,22.4,20.7,00.0,31.4,24.1,08.3,0000.0,0012.73,0005.98,0005.45
2022-11-30 15:29:00,,0827.2,5.00,0.00,22.3,20.6,00.0,31.3,24.1,08.2,0000.0,0013.21,0006.13,0005.60
2022-11-30 15:30:00,,0827.3,5.00,0.00,22.3,20.4,00.0,31.3,24.0,08.2,0000.0,0013.09,0006.29,0005.76
2022-11-30 15:31:00,,0827.4,5.00,0.00,22.2,20.3,00.0,31.3,23.9,08.3,0000.0,0013.17,0006.44,0005.93
2022-11-30 15:32:00,,0827.4,5.00,0.00,22.2,20.2,00.0,31.3,23.9,08.3,0000.0,0013.65,0006.60,0006.10
2022-11-30 15:33:00,,0827.4,5.01,0.00,22.2,20.7,00.0,31.2,23.9,08.3,0000.0,0013.22,0006.70,0006.24
2022-11-30 15:34:00,,0827.4,5.00,0.00,22.3,22.0,00.0,31.2,24.2,08.3,0000.0,0013.16,0006.83,0006.38
2022-11-30 15:35:00,,0827.3,5.00,0.00,22.4,22.2,00.0,31.2,24.3,08.2,0000.0,0013.24,0006.95,0006.53
2022-11-30 15:36:00,,0827.2,5.00,0.00,22.4,21.8,00.0,31.2,24.3,08.2,0000.0,0012.92,0007.04,0006.64
2022-11-30 15:37:00,,0827.2,4.99,0.00,22.4,21.6,00.0,31.3,24.2,08.2,0000.0,0012.42,0007.10,0006.72
2022-11-30 15:38:00,,0827.2,5.00,0.00,22.4,21.4,00.0,31.3,24.2,08.2,0000.0,0012.64,0007.16,0006.77
2022-11-30 15:39:00,,0827.2,5.01,0.00,22.4,21.2,00.0,31.3,24.2,08.2,0000.0,0012.43,0007.20,0006.82
2022-11-30 15:40:00,,0827.2,5.01,0.00,22.3,21.1,00.0,31.3,24.1,08.2,0000.0,0012.26,0007.29,0006.88
2022-11-30 15:41:00,,0827.2,4.99,0.00,22.3,20.9,00.0,31.3,24.1,08.2,0000.0,0012.36,0007.37,0006.94
2022-11-30 15:42:00,,0827.2,4.99,0.00,22.3,20.7,00.0,31.3,24.0,08.2,0000.0,0012.04,0007.43,0006.98
2022-11-30 15:43:00,,0827.2,5.00,0.00,22.3,20.7,00.0,31.2,24.0,08.2,0000.0,0011.95,0007.48,0007.01
2022-11-30 15:44:00,,0827.0,5.00,0.00,22.3,20.8,00.0,31.2,24.0,08.2,0000.0,0011.86,0007.51,0007.01
2022-11-30 15:45:00,,0827.2,5.01,0.00,22.3,20.9,00.0,31.2,24.0,08.2,0000.0,0011.82,0007.51,0007.00
2022-11-30 15:46:00,,0827.4,4.99,0.00,22.2,20.8,00.0,31.2,23.9,08.2,0000.0,0012.42,0007.53,0007.00
2022-11-30 15:47:00,,0827.2,5.01,0.00,22.2,20.6,00.0,31.2,23.9,08.3,0000.0,0012.66,0007.60,0007.02
2022-11-30 15:48:00,,0827.2,4.98,0.00,22.1,20.5,00.0,31.2,23.8,08.3,0000.0,0012.97,0007.70,0007.07
2022-11-30 15:49:00,,0827.2,5.00,0.00,22.1,20.5,00.0,31.1,23.8,08.2,0000.0,0012.84,0007.72,0007.09
2022-11-30 15:50:00,,0827.3,5.01,0.00,22.1,20.7,00.0,31.1,23.8,08.2,0000.0,0012.84,0007.73,0007.11
2022-11-30 15:51:00,,0827.3,5.01,0.00,22.2,22.0,00.0,31.1,24.1,08.2,0000.0,0012.80,0007.71,0007.12
2022-11-30 15:52:00,,0827.3,4.99,0.00,22.3,22.3,00.0,31.1,24.3,08.1,0000.0,0012.92,0007.75,0007.12
2022-11-30 15:53:00,,0827.3,5.00,0.00,22.3,21.8,00.0,31.1,24.2,07.9,0000.0,0012.60,0007.69,0007.08
2022-11-30 15:54:00,,0827.2,5.01,0.00,22.3,21.3,00.0,31.2,24.0,07.9,0000.0,0012.74,0007.63,0007.01
2022-11-30 15:55:00,,0827.2,5.00,0.00,22.2,20.9,00.0,31.2,23.9,08.0,0000.0,0013.36,0007.64,0006.99
2022-11-30 15:56:00,,0827.1,5.00,0.00,22.2,20.8,00.0,31.2,23.9,08.0,0000.0,0013.50,0007.66,0006.98
2022-11-30 15:57:00,,0827.2,5.00,0.00,22.2,20.9,00.0,31.1,23.9,08.1,0000.0,0012.97,0007.67,0006.98
2022-11-30 15:58:00,,0827.2,5.00,0.00,22.2,20.9,00.0,31.1,23.9,08.0,0000.0,0012.72,0007.59,0006.94
2022-11-30 15:59:00,,0827.2,5.00,0.00,22.2,20.9,00.0,31.1,23.9,08.0,0000.0,0012.36,0007.50,0006.89
